[[{"header":{"parameterUnit":"m.s-1","parameterCategory":1,"la1":30.2991,"la2":30.254,"lo1":-89.0895,"lo2":-89.0444,"dy":0.0017,"dx":0.0017,"nx":28,"ny":28,"refTime":"2023-09-05T21:00:00:Z","depth":0,"parameterNumber":2,"parameterNumberName":"U-component_of_WINDS"},"data":[0,0,0,0,0,0,0,0,0,0,0,0,0,0,0,0,0,0,0,0,0,0,0,0,0,0,0,0,0,0,0,0,0,0,0,0,0,0,0,0,0,0,0,0,0,0,0,0,0,0,0,0,0,0,0,0,0,0,-3.6692,-3.6692,0,-3.6678,-3.6678,-3.6678,-3.6607,-3.6605,-3.6603,-3.6602,-3.6588,-3.6589,-3.659,0,0,0,0,0,0,0,0,0,0,0,0,0,-3.6659,-3.666,-3.6692,-3.6692,-3.6692,-3.6678,-3.6678,-3.6678,-3.6607,-3.6605,-3.6603,-3.6601,-3.6588,-3.6589,-3.6591,0,0,0,0,0,0,0,0,0,0,0,0,0,-3.6662,-3.666,-3.6692,-3.6655,-3.6651,-3.6678,-3.6678,-3.6677,-3.6607,-3.6605,-3.6602,-3.66,-3.6587,-3.6589,-3.6591,-3.6653,0,0,-3.6596,-3.6597,0,0,0,0,0,0,0,0,-3.6662,-3.6663,-3.666,-3.6657,-3.6653,-3.6641,-3.6661,-3.6669,-3.6608,-3.6624,-3.6601,-3.6599,-3.6608,-3.6608,-3.6611,-3.6652,-3.6651,-3.6597,-3.6598,-3.6598,-3.6599,0,0,0,0,0,0,0,-3.6662,-3.6664,-3.6686,-3.666,-3.6656,-3.6639,-3.6637,-3.6662,-3.663,-3.6622,-3.6617,-3.6616,-3.6606,-3.6609,-3.661,-3.6651,-3.6596,-3.6598,-3.6599,-3.66,-3.6742,-3.6745,0,0,0,0,0,0,-3.6667,-3.6664,-3.6687,-3.6686,-3.6651,-3.6642,-3.6639,-3.6648,-3.663,-3.6625,-3.6619,-3.6613,-3.6607,-3.6608,-3.6609,-3.6679,-3.6598,-3.66,-3.6601,-3.674,-3.6743,-3.6746,0,0,0,0,0,0,-3.6666,-3.6669,-3.6687,-3.6673,-3.6674,-3.6645,-3.6655,-3.6649,-3.6652,-3.6627,-3.6621,-3.6628,-3.6605,-3.6607,-3.6642,-3.6678,-3.6601,-3.6603,-3.6737,-3.6741,-3.6744,-3.6821,0,0,0,0,0,0,-3.6666,-3.667,-3.6692,-3.6674,-3.6675,-3.672,-3.6658,-3.665,-3.6656,-3.6648,-3.6634,-3.663,-3.6604,-3.664,-3.6644,-3.6679,-3.6604,-3.6733,-3.6738,-3.6743,-3.6815,-3.6827,-3.6837,0,0,0,0,0,-3.6665,-3.6715,-3.6694,-3.6697,-3.6703,-3.6722,-3.6723,-3.6692,-3.6659,-3.6681,-3.6665,-3.663,-3.6674,-3.6644,-3.6648,-3.6684,-3.6731,-3.6737,-3.6743,-3.681,-3.6825,-3.6837,0,0,0,0,0,0,-3.6737,-3.6712,-3.6688,-3.6734,-3.6731,-3.671,-3.6738,-3.6708,-3.6715,-3.6708,-3.6669,-3.6667,-3.6708,-3.67,-3.6667,-3.6743,-3.6696,-3.6704,-3.6746,-3.676,-3.6771,-3.6771,-3.6606,0,0,0,0,0,-3.6759,-3.6776,-3.6753,-3.6796,-3.6795,-3.6767,-3.6775,-3.6751,-3.6746,-3.6745,-3.6731,-3.6728,-3.6741,-3.6751,-3.6762,-3.6815,-3.681,-3.6842,-3.6853,-3.6862,-3.6868,-3.6895,-3.6908,-3.6766,-3.6766,-3.6766,0,0,-3.6803,-3.6791,-3.6804,-3.681,-3.6805,-3.6824,-3.6767,-3.6789,-3.6803,-3.6748,-3.678,-3.6771,-3.6765,-3.681,-3.6829,-3.6804,-3.6907,-3.687,-3.6878,-3.6878,-3.6903,-3.6916,-3.6928,-3.677,-3.6769,-3.6769,0,0,-3.6893,-3.6886,-3.692,-3.6917,-3.691,-3.6891,-3.69,-3.6884,-3.6875,-3.6907,-3.6866,-3.6883,-3.6907,-3.6904,-3.6906,-3.6997,-3.6964,-3.7002,-3.7059,-3.7086,-3.7097,-3.7107,-3.7137,-3.7149,-3.7008,-3.7008,-3.7009,0,-3.6948,-3.6974,-3.6942,-3.6967,-3.697,-3.6923,-3.6957,-3.6955,-3.6953,-3.6956,-3.693,-3.6958,-3.6951,-3.6994,-3.7016,-3.702,-3.7028,-3.7001,-3.7098,-3.7107,-3.7116,-3.7145,-3.7157,-3.7013,-3.7012,-3.7012,-3.7011,0,-3.7043,-3.7062,-3.7091,-3.7089,-3.7096,-3.7126,-3.7098,-3.711,-3.7086,-3.7071,-3.7104,-3.7094,-3.7102,-3.7111,-3.7089,-3.7151,-3.7136,-3.7105,-3.7056,-3.7135,-3.7161,-3.7172,-3.7019,-3.7018,-3.7016,-3.7015,0,0,-3.7175,-3.7155,-3.7166,-3.7165,-3.7155,-3.7169,-3.7198,-3.7205,-3.7215,-3.7216,-3.7238,-3.726,-3.7231,-3.7233,-3.721,-3.7234,-3.7305,-3.72,-3.7199,-3.7218,-3.7372,-3.7394,-3.7408,-3.7285,-3.7287,-3.7289,-3.7372,0,-3.7259,-3.7305,-3.7277,-3.7327,-3.7344,-3.73,-3.7325,-3.7322,-3.7309,-3.7322,-3.7307,-3.7323,-3.7284,-3.7285,-3.7307,-3.7292,-3.7335,-3.7286,-3.7304,-3.7305,-3.7304,-3.7422,-3.7445,-3.7524,-3.7382,-3.7384,-3.7385,0,-3.7362,-3.7367,-3.7419,-3.7405,-3.7412,-3.7434,-3.7439,-3.7452,-3.7448,-3.7437,-3.744,-3.7412,-3.7439,-3.7394,-3.7431,-3.7398,-3.7404,-3.7399,-3.7401,-3.7399,-3.7348,-3.7421,-3.7548,-3.7559,-3.7402,-3.7401,-3.7399,0,-3.7451,-3.7471,-3.7504,-3.7504,-3.749,-3.7507,-3.7502,-3.7495,-3.7502,-3.7507,-3.751,-3.7519,-3.7523,-3.753,-3.7505,-3.7475,-3.7545,-3.7498,-3.7536,-3.7536,-3.755,-3.7549,-3.7678,-3.7559,-3.7559,-3.7558,-3.7558,0,-3.7546,-3.7579,-3.7543,-3.7564,-3.76,-3.7568,-3.7605,-3.7596,-3.7591,-3.7608,-3.7572,-3.759,-3.7557,-3.7571,-3.7553,-3.7585,-3.7588,-3.7579,-3.7573,-3.7581,-3.7582,-3.7583,-3.7576,-3.7561,-3.7561,-3.756,-3.756,0,-3.765,-3.7628,-3.7661,-3.7645,-3.7642,-3.7669,-3.7656,-3.7674,-3.766,-3.7683,-3.7686,-3.7663,-3.7679,-3.7655,-3.7668,-3.7656,-3.77,-3.7687,-3.7701,-3.7696,-3.7735,-3.7731,-3.7866,-3.7882,-3.7755,-3.7757,-3.7758,0,-3.7711,-3.7735,-3.7722,-3.7731,-3.7728,-3.7744,-3.775,-3.7721,-3.773,-3.7728,-3.7746,-3.7759,-3.7767,-3.7794,-3.7778,-3.7788,-3.7773,-3.7821,-3.7774,-3.7781,-3.7772,-3.777,-3.7771,-3.7829,-3.7831,-3.7832,-3.7833,0,-3.7821,-3.7809,-3.7819,-3.7826,-3.7835,-3.7839,-3.7841,-3.7851,-3.782,-3.7831,-3.7846,-3.7853,-3.7866,-3.7879,-3.7885,-3.788,-3.7851,-3.7848,-3.7857,-3.7864,-3.787,-3.7865,-3.7724,-3.7844,-3.7843,-3.7842,-3.7842,-3.7841,-3.7903,-3.7923,-3.7917,-3.793,-3.7928,-3.7931,-3.7947,-3.7935,-3.7947,-3.7954,-3.7937,-3.7957,-3.7953,-3.7958,-3.7957,-3.7972,-3.7951,-3.7965,-3.7968,-3.7971,-3.7976,-3.787,-3.7973,-3.7973,-3.7973,-3.7972,-3.7972,0,-3.801,-3.8004,-3.8016,-3.802,-3.803,-3.8003,-3.8004,-3.8014,-3.8032,-3.8031,-3.8039,-3.8057,-3.807,-3.8056,-3.8066,-3.808,-3.8067,-3.8084,-3.8081,-3.808,-3.7995,-3.7985,-3.8094,-3.8094,-3.8094,-3.8094,-3.8094,-3.8094,-3.8066,-3.8097,-3.8085,-3.8115,-3.8109,-3.8127,-3.813,-3.8132,-3.8131,-3.8152,-3.8162,-3.8154,-3.8147,-3.8157,-3.8167,-3.8163,-3.8167,-3.8188,-3.8179,-3.8098,-3.8086,-3.8075,-3.8065,-3.819,-3.819,-3.8263,-3.8264,-3.8264]},{"header":{"parameterUnit":"m.s-1","parameterCategory":1,"la1":30.2991,"la2":30.254,"lo1":-89.0895,"lo2":-89.0444,"dy":0.0017,"dx":0.0017,"nx":28,"ny":28,"refTime":"2023-09-05T21:00:00:Z","depth":0,"parameterNumber":3,"parameterNumberName":"V-component_of_WINDS"},"data":[0,0,0,0,0,0,0,0,0,0,0,0,0,0,0,0,0,0,0,0,0,0,0,0,0,0,0,0,0,0,0,0,0,0,0,0,0,0,0,0,0,0,0,0,0,0,0,0,0,0,0,0,0,0,0,0,0,0,2.5422,2.5422,0,2.5441,2.5441,2.5441,2.5455,2.5455,2.5455,2.5455,2.5472,2.5473,2.5473,0,0,0,0,0,0,0,0,0,0,0,0,0,2.5396,2.5396,2.5422,2.5422,2.5422,2.5441,2.5441,2.5441,2.5455,2.5455,2.5455,2.5455,2.5472,2.5473,2.5473,0,0,0,0,0,0,0,0,0,0,0,0,0,2.541,2.5396,2.5422,2.5431,2.5432,2.5441,2.5441,2.5441,2.5455,2.5455,2.5455,2.5455,2.5472,2.5473,2.5473,2.5473,0,0,2.5475,2.5475,0,0,0,0,0,0,0,0,2.5409,2.5411,2.543,2.5431,2.5432,2.5446,2.5438,2.5452,2.5455,2.5446,2.5455,2.5456,2.5463,2.5464,2.5468,2.5473,2.5474,2.5475,2.5475,2.5475,2.5475,0,0,0,0,0,0,0,2.5408,2.541,2.5429,2.543,2.5431,2.5434,2.5436,2.5441,2.5453,2.5447,2.5448,2.545,2.5464,2.5467,2.5468,2.5474,2.5475,2.5475,2.5476,2.5476,2.5481,2.5481,0,0,0,0,0,0,2.5406,2.5409,2.5429,2.543,2.5421,2.5434,2.5437,2.5441,2.5453,2.5456,2.545,2.5451,2.5466,2.5467,2.5469,2.5469,2.5475,2.5476,2.5476,2.5481,2.5481,2.5481,0,0,0,0,0,0,2.5405,2.5407,2.5428,2.542,2.5423,2.5435,2.5439,2.5441,2.5445,2.5456,2.5458,2.5451,2.5466,2.5468,2.5472,2.547,2.5476,2.5476,2.5481,2.5481,2.5481,2.547,0,0,0,0,0,0,2.5404,2.5407,2.5407,2.542,2.5423,2.5431,2.5439,2.5442,2.5446,2.5447,2.5457,2.5459,2.5467,2.5471,2.5472,2.5471,2.5477,2.5482,2.5481,2.5481,2.547,2.5469,2.5468,0,0,0,0,0,2.5403,2.5403,2.5407,2.541,2.5424,2.5431,2.5433,2.5442,2.5445,2.5446,2.5453,2.5459,2.547,2.5471,2.5473,2.5471,2.5482,2.5481,2.5481,2.5471,2.5469,2.5468,0,0,0,0,0,0,2.5389,2.5405,2.541,2.5413,2.5421,2.5433,2.5434,2.544,2.5446,2.5447,2.5457,2.5459,2.5462,2.5467,2.5468,2.5472,2.5477,2.5477,2.5468,2.5467,2.5466,2.5464,2.5477,0,0,0,0,0,2.5386,2.5391,2.5405,2.5406,2.541,2.5421,2.5425,2.5431,2.5439,2.5442,2.545,2.5456,2.5462,2.5464,2.547,2.5471,2.5473,2.5471,2.547,2.5469,2.5468,2.547,2.5469,2.548,2.548,2.548,0,0,2.538,2.539,2.5392,2.5404,2.541,2.5415,2.5424,2.5428,2.5432,2.5442,2.5447,2.5453,2.5461,2.5464,2.5465,2.5468,2.5466,2.5468,2.5468,2.5468,2.5469,2.5468,2.5467,2.5479,2.5479,2.5479,0,0,2.5372,2.538,2.5383,2.5389,2.54,2.5407,2.5408,2.542,2.5424,2.5429,2.5437,2.5441,2.545,2.5455,2.5459,2.5454,2.546,2.5456,2.545,2.5451,2.545,2.5449,2.5447,2.5446,2.5455,2.5455,2.5455,0,2.5363,2.5372,2.5383,2.5387,2.5392,2.5403,2.5406,2.5411,2.5422,2.5425,2.5428,2.544,2.5446,2.545,2.5449,2.5452,2.5453,2.5454,2.5449,2.5449,2.5448,2.5446,2.5446,2.5455,2.5455,2.5455,2.5455,0,2.536,2.5366,2.5367,2.5378,2.5383,2.5386,2.5398,2.5401,2.5407,2.5415,2.5419,2.5427,2.5435,2.5436,2.5442,2.5441,2.5443,2.5447,2.5453,2.5446,2.5445,2.5444,2.5454,2.5454,2.5454,2.5455,0,0,2.5343,2.5361,2.5361,2.5367,2.538,2.5384,2.5388,2.5396,2.5398,2.5406,2.5409,2.5416,2.5421,2.5426,2.5432,2.5433,2.5429,2.5438,2.5438,2.5436,2.5428,2.5424,2.5424,2.5433,2.5433,2.5433,2.5428,0,2.5336,2.5345,2.5355,2.536,2.5365,2.5376,2.5379,2.5387,2.5394,2.5399,2.5406,2.5411,2.5417,2.542,2.5422,2.5429,2.5427,2.5429,2.5435,2.5435,2.5432,2.5423,2.5419,2.5413,2.5427,2.5427,2.5427,0,2.533,2.5338,2.5343,2.5356,2.5359,2.5362,2.537,2.5375,2.5384,2.5389,2.5394,2.5402,2.5406,2.5411,2.5416,2.5418,2.5421,2.5425,2.5425,2.5425,2.543,2.5423,2.5412,2.5411,2.5426,2.5426,2.5426,0,2.5316,2.5328,2.5333,2.5338,2.5353,2.5355,2.5361,2.537,2.5375,2.5382,2.5385,2.5392,2.5396,2.5401,2.541,2.5413,2.5414,2.542,2.5418,2.5418,2.5417,2.5417,2.5407,2.542,2.542,2.542,2.542,0,2.5308,2.5311,2.5328,2.5331,2.5334,2.5346,2.5349,2.5356,2.5364,2.5368,2.5378,2.5381,2.5393,2.5398,2.5405,2.5409,2.541,2.5414,2.5416,2.5413,2.5412,2.5414,2.5415,2.542,2.542,2.542,2.542,0,2.5293,2.5305,2.5311,2.5325,2.5329,2.5331,2.5342,2.5345,2.5353,2.5358,2.536,2.5372,2.5378,2.5388,2.5397,2.5401,2.5403,2.5407,2.5401,2.5402,2.5399,2.5399,2.5389,2.5388,2.5402,2.5402,2.5402,0,2.5287,2.5289,2.5304,2.5309,2.5315,2.5321,2.5326,2.5338,2.5342,2.5353,2.5355,2.5362,2.5368,2.5377,2.5386,2.5393,2.5396,2.5392,2.5397,2.5394,2.5396,2.5395,2.5395,2.5391,2.539,2.539,2.539,0,2.5274,2.528,2.5288,2.5297,2.5303,2.531,2.5318,2.5321,2.5334,2.5339,2.5346,2.5351,2.536,2.5367,2.5375,2.5381,2.5387,2.5389,2.5389,2.5385,2.5382,2.5384,2.5397,2.5389,2.5389,2.5389,2.5389,2.5389,2.5263,2.5267,2.5278,2.5286,2.5293,2.5301,2.5304,2.5313,2.532,2.5329,2.5335,2.5342,2.5351,2.5363,2.5368,2.5373,2.5376,2.5376,2.5376,2.5375,2.5374,2.5382,2.5374,2.5375,2.5375,2.5375,2.5375,0,2.5251,2.526,2.5267,2.5278,2.5284,2.5292,2.5301,2.5305,2.5311,2.532,2.5326,2.5334,2.5341,2.5351,2.5358,2.536,2.5363,2.5362,2.5361,2.5362,2.5371,2.537,2.5359,2.5359,2.5359,2.5359,2.5359,2.5359,2.5246,2.5251,2.5259,2.5268,2.5276,2.5283,2.5288,2.5295,2.5302,2.5311,2.5317,2.5324,2.5333,2.5341,2.5347,2.535,2.5352,2.5349,2.5353,2.536,2.5362,2.5363,2.5363,2.535,2.535,2.5344,2.5344,2.5344]}]]